Regional Weather Roundup
Issued by NWS

Home | Current Version | Previous Version | Text Only | Print | Product List | Glossary Off
Versions: 1 2 3 4 5 6 7 8 9 10 11 12 13 14 15 16 17 18 19 20 21 22 23 24 25 26 27 28 29 30 31 32 33 34 35 36 37 38 39 40 41 42 43 44 45 46 47 48 49 50

000
ASUS43 KOAX 181510
RWRNE

WEATHER ROUNDUP FOR NEBRASKA
NATIONAL WEATHER SERVICE OMAHA NE
1000 AM CDT THU SEP 18 2014

NOTES: SATELLITE DATA IS BEING USED TO AUGMENT CLOUD COVER ABOVE
       12000 FEET.
       "FAIR" INDICATES FEW OR NO CLOUDS BELOW 12,000 FEET WITH NO
       SIGNIFICANT WEATHER AND/OR OBSTRUCTIONS TO VISIBILITY.

  * THESE STATIONS DO NOT REPORT WEATHER SUCH AS RAIN...SNOW OR FOG.

NEZ001>004-019>022-054>056-181600-
NEBRASKA PANHANDLE

CITY           SKY/WX    TMP DP  RH WIND       PRES   REMARKS
SCOTTSBLUFF    FOG       56  56 100 CALM      29.97F VSB 3/4
ALLIANCE       PTSUNNY   65  59  81 S14       29.97R
CHADRON        SUNNY     60  54  80 SW3       29.91F
KIMBALL        SUNNY     67  43  42 S3        30.01S
SIDNEY         CLOUDY    58  56  93 S7        30.02R FOG
$$

NEZ057>060-069>072-079>082-181600-
SOUTHWEST NEBRASKA

CITY           SKY/WX    TMP DP  RH WIND       PRES   REMARKS
NORTH PLATTE   CLOUDY    60  59  96 SE6       29.99R FOG
IMPERIAL       CLOUDY    63  62  97 SE9       29.99R FOG
LEXINGTON      CLOUDY    64  61  91 SE9       30.00R FOG
MCCOOK         FOG       62  61  96 SE12      29.99R VSB 1
OGALLALA       CLOUDY    65  65  99 S7        29.99R FOG
$$

NEZ005>010-023>029-035>040-094-181600-
NORTH CENTRAL NEBRASKA

CITY           SKY/WX    TMP DP  RH WIND       PRES   REMARKS
VALENTINE      SUNNY     67  59  75 S14G21    29.94S
AINSWORTH      SUNNY     64  59  83 S16G24    29.97R
BROKEN BOW     MOSUNNY   65  61  87 S12G22    29.99S
O`NEILL        CLOUDY    64  64  98 S10G16    30.00R FOG
ORD            CLOUDY    63  60  90 SE13      30.00R
THEDFORD       PTSUNNY   65  58  78 S9        29.98S
$$

NEZ041-046>049-061>064-073>077-083>087-181600-
SOUTH CENTRAL NEBRASKA

CITY           SKY/WX    TMP DP  RH WIND       PRES   REMARKS
GRAND ISLAND   MOSUNNY   65  60  84 SE12      30.01S
AURORA         PTSUNNY   63  63 100 SE10      30.01S
HASTINGS       MOSUNNY   65  58  78 SE18      30.00R
HEBRON         CLOUDY    65  60  84 SE13      30.01S
HOLDREGE       CLOUDY    63  59  87 SE14G21   29.99S FOG
KEARNEY *      PTSUNNY   64  61  88 SE14G23   30.00S
YORK           PTSUNNY   64  63  94 SE12      30.01F
$$

NEZ011>018-030>034-042>045-181600-
NORTHEAST NEBRASKA

CITY           SKY/WX    TMP DP  RH WIND       PRES   REMARKS
NORFOLK        PTSUNNY   66  62  87 S13       30.02R
ALBION         CLOUDY    62  60  94 S9        30.02R FOG
BLAIR          CLOUDY    64  60  85 SE7       30.04R
COLUMBUS *     CLOUDY    64  61  88 S8        30.04R
FREMONT        CLOUDY    63  59  88 SE12      30.04R
TEKAMAH        CLOUDY    61  58  90 SE12      30.04R
WAYNE          CLOUDY    66  62  89 SE9       30.03R FOG
$$

NEZ050>053-065>068-078-088>093-181600-
SOUTHEAST NEBRASKA

CITY           SKY/WX    TMP DP  RH WIND       PRES   REMARKS
LINCOLN        PTSUNNY   67  61  81 SE12      30.03S
OMAHA EPPLEY   PTSUNNY   65  59  81 SE12      30.04S
BEATRICE       SUNNY     67  62  83 SE9       30.00F
FALLS CITY     CLOUDY    62  61  96 E8        30.02R FOG
NEBRASKA CITY  PTSUNNY   64  61  88 SE7       30.02F
PLATTSMOUTH    PTSUNNY   65  60  82 E10       30.03S
$$

NEZ044-045-051>053-067-181600-
OMAHA AREA

CITY           SKY/WX    TMP DP  RH WIND       PRES   REMARKS
OMAHA EPPLEY   PTSUNNY   65  59  81 SE12      30.04S
BLAIR          CLOUDY    64  60  85 SE7       30.04R
FREMONT        CLOUDY    63  59  88 SE12      30.04R
MILLARD        CLOUDY    65  60  82 SE12      30.03S
OFFUTT AFB     MOSUNNY   66  65  97 E10       30.03S
PLATTSMOUTH    PTSUNNY   65  60  82 E10       30.03S
WAHOO          CLOUDY    64  61  91 SE8       30.03S FOG
$$


USA.gov is the U.S. government's official web portal to all federal, state and local government web resources and services.